{"data":{"norad_id":51738,"epoch":"2026-05-24T22:42:11.549664Z","epoch_age_seconds":76932,"freshness":"FRESH","line1":"1 51738U 22016AA  26144.94596701 -.00000134  00000+0  96373-5 0  9994","line2":"2 51738  53.2140 336.7911 0001200  83.5900 276.5228 15.08835645235073","mean_motion":15.08835645,"eccentricity":0.00012,"inclination_deg":53.214,"raan_deg":336.7911,"arg_perigee_deg":83.59,"mean_anomaly_deg":276.5228,"bstar":9.6373e-6,"rev_number":23507,"period_min":95.437830142196,"perigee_km":538.92655324482,"apogee_km":540.58684773293,"semimajor_km":6917.8937004889,"source":"CELESTRAK","updated_at":"2026-05-25T13:38:16.924421Z"}}